Change the Weather History Date:

Saturday, December 10, 2011

  Actual Average Record
Temperature  
Mean Temperature 63 °F 63 °F  
Max Temperature 68 °F 73 °F 88 °F (1971)
Min Temperature 58 °F 53 °F 28 °F (1915)
Degree Days  
Heating Degree Days 2 5  
Month to date heating degree days 53 45  
Since 1 July heating degree days 85 105  
Cooling Degree Days 0 3  
Month to date cooling degree days 33 32  
Year to date cooling degree days 5207 4401  
Growing Degree Days 12 (Base 50)    
Moisture  
Dew Point 61 °F    
Average Humidity 88    
Maximum Humidity 100    
Minimum Humidity 76    
Precipitation  
Precipitation 1.66 in 0.04 in 1.66 in (2011)
Month to date precipitation 1.66 0.34  
Year to date precipitation 9.79 21.35  
Sea Level Pressure  
Sea Level Pressure 30.26 in    
Wind  
Wind Speed 11 mph (ENE)    
Max Wind Speed 22 mph    
Max Gust Speed 28 mph    
Visibility 7 miles    
Events Rain    
T = Trace of Precipitation, MM = Missing Value Source: NWS Daily Summary

Daily Weather History Graph

Daily Weather History Graph

Search for Another Location

Airport or City:

Trip Planner

Search our weather history database for the weather conditions in past years. The results will help you decide how hot, cold, wet, or windy it might be!

Date:

Astronomy

Dec. 10, 2011 Rise Set
Actual Time 7:09 AM CST 5:41 PM CST
Civil Twilight 6:44 AM CST 6:07 PM CST
Nautical Twilight 6:15 AM CST 6:35 PM CST
Astronomical Twilight 5:47 AM CST 7:04 PM CST
Moon 5:58 PM CST (12/10) 7:09 AM CST (12/10)
Length of Visible Light 11h 22m
Length of Day
10h 32m
Full, 100% of the Moon is Illuminated
Dec 10
Full
Dec 17
Last Quarter
Dec 24
New
Jan 1
First Quarter
Jan 9
Full

Hourly Weather History & Observations

Time (CST) Temp. Dew Point Humidity Pressure Visibility Wind Dir Wind Speed Gust Speed Precip Events Conditions
12:53 AM 68.0 °F 61.0 °F 78% 30.20 in 10.0 mi NE 10.4 mph - N/A   Overcast
1:53 AM 68.0 °F 62.6 °F 83% 30.22 in 10.0 mi NE 8.1 mph - N/A   Overcast
2:20 AM 68.0 °F 62.6 °F 83% 30.22 in 10.0 mi ENE 9.2 mph - N/A   Overcast
2:38 AM 68.0 °F 62.6 °F 83% 30.21 in 10.0 mi ENE 8.1 mph - N/A   Overcast
2:53 AM 68.0 °F 63.0 °F 84% 30.21 in 10.0 mi ENE 8.1 mph - N/A   Overcast
3:21 AM 68.0 °F 62.6 °F 83% 30.22 in 10.0 mi NNE 6.9 mph - 0.00 in Rain Light Rain
3:30 AM 68.0 °F 64.4 °F 88% 30.22 in 10.0 mi NNE 6.9 mph - 0.00 in Rain Light Rain
3:53 AM 66.9 °F 64.0 °F 90% 30.22 in 10.0 mi NNE 5.8 mph - 0.00 in   Overcast
4:39 AM 66.2 °F 62.6 °F 88% 30.22 in 3.0 mi NNE 8.1 mph - 0.13 in Rain Heavy Rain
4:53 AM 64.9 °F 63.0 °F 93% 30.21 in 7.0 mi North 8.1 mph - 0.16 in Rain Light Rain
5:12 AM 64.4 °F 62.6 °F 94% 30.22 in 8.0 mi NNE 5.8 mph - 0.00 in Rain Light Rain
5:53 AM 64.9 °F 64.0 °F 97% 30.22 in 6.0 mi NNE 4.6 mph - 0.02 in Rain Light Rain
6:53 AM 64.9 °F 64.0 °F 97% 30.24 in 10.0 mi ENE 8.1 mph - 0.02 in Rain Light Rain
7:53 AM 64.9 °F 64.0 °F 97% 30.25 in 10.0 mi ENE 11.5 mph - 0.03 in   Overcast
8:36 AM 64.4 °F 62.6 °F 94% 30.27 in 5.0 mi ENE 13.8 mph - 0.03 in Rain Rain
8:53 AM 64.9 °F 63.0 °F 93% 30.28 in 8.0 mi East 12.7 mph - 0.05 in Rain Light Rain
9:26 AM 64.4 °F 62.6 °F 94% 30.29 in 8.0 mi East 12.7 mph 19.6 mph 0.01 in Rain Light Rain
9:53 AM 64.9 °F 63.0 °F 93% 30.29 in 10.0 mi East 16.1 mph 21.9 mph 0.01 in   Overcast
10:01 AM 64.4 °F 62.6 °F 94% 30.29 in 10.0 mi East 13.8 mph - N/A   Overcast
10:14 AM 64.4 °F 62.6 °F 94% 30.30 in 10.0 mi East 15.0 mph - 0.00 in Rain Light Rain
10:53 AM 66.0 °F 63.0 °F 90% 30.30 in 4.0 mi East 8.1 mph - 0.01 in Rain Light Rain
11:26 AM 64.4 °F 62.6 °F 94% 30.30 in 2.5 mi East 9.2 mph - 0.09 in Rain Heavy Rain
11:47 AM 64.4 °F 62.6 °F 94% 30.29 in 2.5 mi ENE 9.2 mph - 0.22 in Rain Heavy Rain
11:50 AM 64.4 °F 62.6 °F 94% 30.29 in 2.5 mi ENE 9.2 mph - 0.23 in Rain Heavy Rain
11:53 AM 64.0 °F 63.0 °F 96% 30.28 in 2.5 mi ENE 10.4 mph - 0.24 in Rain Heavy Rain
12:29 PM 64.4 °F 62.6 °F 94% 30.29 in 3.0 mi East 4.6 mph - 0.18 in Rain Heavy Rain
12:40 PM 64.4 °F 62.6 °F 94% 30.28 in 2.0 mi ENE 10.4 mph - 0.23 in Rain Heavy Rain
12:53 PM 64.0 °F 63.0 °F 96% 30.27 in 2.0 mi ENE 6.9 mph - 0.32 in Rain Heavy Rain
1:00 PM 64.4 °F 62.6 °F 94% 30.27 in 4.0 mi East 8.1 mph - 0.03 in Rain Rain
1:37 PM 64.4 °F 62.6 °F 94% 30.25 in 2.5 mi East 8.1 mph - 0.24 in Rain Heavy Rain
1:53 PM 64.0 °F 63.0 °F 96% 30.25 in 4.0 mi ENE 9.2 mph - 0.32 in Rain Rain
2:00 PM 64.4 °F 62.6 °F 94% 30.25 in 5.0 mi ENE 8.1 mph - 0.01 in Rain Rain
2:17 PM 62.6 °F 62.6 °F 100% 30.25 in 2.5 mi ENE 10.4 mph - 0.07 in Rain Heavy Rain
2:34 PM 62.6 °F 62.6 °F 100% 30.24 in 3.0 mi ENE 12.7 mph 19.6 mph 0.15 in Rain Heavy Rain
2:53 PM 63.0 °F 61.0 °F 93% 30.24 in 5.0 mi ENE 13.8 mph 23.0 mph 0.17 in Rain Light Rain
3:53 PM 63.0 °F 60.1 °F 90% 30.24 in 5.0 mi ENE 15.0 mph - 0.09 in Rain Heavy Rain
4:53 PM 63.0 °F 60.1 °F 90% 30.25 in 10.0 mi NE 13.8 mph 20.7 mph 0.04 in Rain Light Rain
5:53 PM 62.1 °F 59.0 °F 90% 30.27 in 7.0 mi ENE 13.8 mph 19.6 mph 0.04 in Rain Rain
6:53 PM 60.1 °F 57.9 °F 93% 30.29 in 5.0 mi NE 18.4 mph 21.9 mph 0.10 in Rain Rain
7:53 PM 59.0 °F 57.0 °F 93% 30.30 in 10.0 mi NE 16.1 mph 24.2 mph 0.04 in Rain Light Rain
8:03 PM 59.0 °F 57.2 °F 94% 30.30 in 10.0 mi NE 13.8 mph - 0.00 in Rain Light Rain
8:21 PM 59.0 °F 57.2 °F 94% 30.30 in 10.0 mi ENE 12.7 mph 23.0 mph N/A   Overcast
8:53 PM 60.1 °F 57.0 °F 90% 30.31 in 10.0 mi ENE 12.7 mph 19.6 mph 0.00 in   Overcast
9:53 PM 60.1 °F 55.9 °F 86% 30.32 in 10.0 mi ENE 12.7 mph - N/A   Overcast
10:53 PM 60.1 °F 55.9 °F 86% 30.32 in 10.0 mi NE 12.7 mph 19.6 mph 0.00 in Rain Light Rain
11:46 PM 57.2 °F 55.4 °F 94% 30.31 in 10.0 mi North 11.5 mph - N/A   Overcast
11:53 PM 57.9 °F 55.0 °F 90% 30.31 in 10.0 mi North 10.4 mph - 0.00 in   Overcast